{"data":{"norad_id":64915,"epoch":"2026-05-24T20:22:39.838080Z","epoch_age_seconds":91279,"freshness":"FRESH","line1":"1 64915U 25157M   26144.84907220  .00017832  00000+0  61268-3 0  9990","line2":"2 64915  53.1606 351.9463 0000879  67.2084 292.9010 15.30203136 47783","mean_motion":15.30203136,"eccentricity":8.79e-5,"inclination_deg":53.1606,"raan_deg":351.9463,"arg_perigee_deg":67.2084,"mean_anomaly_deg":292.901,"bstar":0.00061268,"rev_number":4778,"period_min":94.105152846844,"perigee_km":474.60329708073,"apogee_km":475.80811472843,"semimajor_km":6853.3427059046,"source":"CELESTRAK","updated_at":"2026-05-25T13:38:20.622035Z"}}